Malaga, Spain

11:21 AM CET on January 16, 2018 (GMT +0100)
Malaga

Weather History for LEMG - January, 2013

Change the Weather History Date:

Thursday, January 31, 2013

  Actual Average Record
Temperature  
Mean Temperature 56 °F -  
Max Temperature 67 °F 61 °F 70 °F (2016)
Min Temperature 44 °F 45 °F 37 °F (2000)
Degree Days  
Heating Degree Days 8    
Growing Degree Days 6 (Base 50)    
Moisture  
Dew Point 45 °F    
Average Humidity 69    
Maximum Humidity 87    
Minimum Humidity 38    
Precipitation  
Precipitation 0.00 in 0.10 in - ()
Sea Level Pressure  
Sea Level Pressure 30.41 in    
Wind  
Wind Speed 6 mph ()    
Max Wind Speed 12 mph    
Max Gust Speed -    
Visibility 16.0 miles    
Events      
Averages and records for this station are not official NWS values.
T = Trace of Precipitation, MM = Missing Value Source: Averaged Metar Reports

Daily Weather History Graph

Daily Weather History Graph

Search for Another Location

Airport or City:

Trip Planner

Search our weather history database for the weather conditions in past years. The results will help you decide how hot, cold, wet, or windy it might be!

Date:

Astronomy

Jan. 31, 2013 Rise Set
Actual Time 8:20 AM CET 6:42 PM CET
Civil Twilight 7:53 AM CET 7:09 PM CET
Nautical Twilight 7:22 AM CET 7:40 PM CET
Astronomical Twilight 6:51 AM CET 8:11 PM CET
Moon 11:20 PM CET (1/31) 10:21 AM CET (1/31)
Length of Visible Light 11h 16m
Length of Day
10h 22m
Waning Gibbous, 82% of the Moon is Illuminated
Jan 31
Waning Gibbous
Feb 3
Last Quarter
Feb 10
New
Feb 17
First Quarter
Feb 25
Full

Hourly Weather History & Observations

Time (CET) Temp. Windchill Dew Point Humidity Pressure Visibility Wind Dir Wind Speed Gust Speed Precip Events Conditions
12:00 AM 55.4 °F - 44.6 °F 67% 30.42 in - NW 10.4 mph - N/A   Clear
12:30 AM 53.6 °F - 44.6 °F 72% 30.42 in - NW 10.4 mph - N/A   Clear
1:00 AM 57 °F - 44 °F 52% 30.43 in 16 mi NW 9.2 mph - -  
1:00 AM 53.6 °F - 44.6 °F 72% 30.42 in - NW 9.2 mph - N/A   Clear
1:30 AM 53.6 °F - 44.6 °F 72% 30.42 in - WNW 9.2 mph - N/A   Clear
2:00 AM 51.8 °F - 44.6 °F 76% 30.42 in - WNW 11.5 mph - N/A   Clear
2:30 AM 50.0 °F - 44.6 °F 82% 30.42 in - WNW 8.1 mph - N/A   Clear
3:00 AM 50.0 °F - 42.8 °F 76% 30.42 in - WNW 10.4 mph - N/A   Clear
3:30 AM 48.2 °F - 42.8 °F 82% 30.39 in - NW 9.2 mph - N/A   Clear
4:00 AM 48.2 °F - 42.8 °F 82% 30.39 in - NW 6.9 mph - N/A   Clear
4:30 AM 48.2 °F - 42.8 °F 82% 30.39 in - NW 9.2 mph - N/A   Clear
5:00 AM 48.2 °F - 42.8 °F 82% 30.39 in - NW 9.2 mph - N/A   Clear
5:30 AM 48.2 °F - 42.8 °F 82% 30.39 in - NW 10.4 mph - N/A   Clear
6:00 AM 46.4 °F 41.9 °F 41.0 °F 81% 30.39 in - NW 9.2 mph - N/A   Clear
6:30 AM 46.4 °F 41.5 °F 41.0 °F 81% 30.39 in - NW 10.4 mph - N/A   Clear
7:00 AM 53 °F - 40 °F 51% 30.40 in 16 mi NW 10.4 mph - -  
7:00 AM 46.4 °F 41.5 °F 41.0 °F 81% 30.39 in - NW 10.4 mph - N/A   Clear
7:30 AM 48.2 °F - 41.0 °F 76% 30.39 in - NW 10.4 mph - N/A   Clear
8:00 AM 46.4 °F 41.5 °F 41.0 °F 81% 30.39 in - NW 10.4 mph - N/A   Clear
8:30 AM 46.4 °F 41.9 °F 41.0 °F 81% 30.42 in - NW 9.2 mph - N/A   Clear
9:00 AM 46.4 °F 42.4 °F 39.2 °F 76% 30.42 in - NW 8.1 mph - N/A   Clear
9:30 AM 50.0 °F - 41.0 °F 71% 30.42 in - NW 8.1 mph - N/A   Clear
10:00 AM 51.8 °F - 42.8 °F 71% 30.45 in - WNW 9.2 mph - N/A   Clear
10:30 AM 55.4 °F - 42.8 °F 63% 30.45 in - WNW 6.9 mph - N/A   Clear
11:00 AM 59.0 °F - 41.0 °F 51% 30.45 in - NW 6.9 mph - N/A   Clear
11:30 AM 62.6 °F - 39.2 °F 42% 30.45 in - Variable 2.3 mph - N/A   Clear
12:00 PM 64.4 °F - 41.0 °F 42% 30.48 in - Calm Calm - N/A   Clear
12:30 PM 66.2 °F - 41.0 °F 40% 30.48 in - ESE 4.6 mph - N/A   Clear
1:00 PM 65 °F - 45 °F 38% 30.48 in 25 mi SE 4.6 mph - -  
1:30 PM 64.4 °F - 46.4 °F 52% 30.45 in - SE 4.6 mph - N/A   Clear
2:00 PM 62.6 °F - 51.8 °F 68% 30.45 in - ESE 3.5 mph - N/A   Clear
2:30 PM 62.6 °F - 53.6 °F 72% 30.42 in - SE 3.5 mph - N/A   Clear
3:00 PM 62.6 °F - 50.0 °F 63% 30.42 in - Variable 2.3 mph - N/A   Clear
3:30 PM 62.6 °F - 50.0 °F 63% 30.39 in - Variable 2.3 mph - N/A   Clear
4:00 PM 64.4 °F - 50.0 °F 59% 30.39 in - Variable 1.2 mph - N/A   Clear
4:30 PM 64.4 °F - 51.8 °F 64% 30.39 in - Variable 2.3 mph - N/A   Clear
5:00 PM 64.4 °F - 48.2 °F 56% 30.39 in - Calm Calm - N/A   Clear
5:30 PM 64.4 °F - 46.4 °F 52% 30.39 in - Calm Calm - N/A   Clear
6:00 PM 60.8 °F - 51.8 °F 72% 30.39 in - Variable 2.3 mph - N/A   Clear
6:30 PM 59.0 °F - 51.8 °F 77% 30.39 in - Calm Calm - N/A   Clear
7:00 PM 57 °F - 49 °F 68% 30.40 in 25 mi Calm Calm - -  
7:00 PM 55.4 °F - 50.0 °F 82% 30.39 in - Calm Calm - N/A   Clear
7:30 PM 57.2 °F - 44.6 °F 63% 30.39 in - Calm Calm - N/A   Clear
8:00 PM 53.6 °F - 44.6 °F 72% 30.39 in - Variable 2.3 mph - N/A   Clear
8:30 PM 51.8 °F - 44.6 °F 76% 30.39 in - WNW 3.5 mph - N/A   Clear
9:00 PM 51.8 °F - 42.8 °F 71% 30.39 in - NW 1.2 mph - N/A   Clear
9:30 PM 51.8 °F - 44.6 °F 76% 30.39 in - Variable 1.2 mph - N/A   Clear
10:00 PM 53.6 °F - 48.2 °F 82% 30.42 in - Calm Calm - N/A   Clear
10:30 PM 51.8 °F - 44.6 °F 76% 30.42 in - Calm Calm - N/A   Clear
11:00 PM 50.0 °F - 42.8 °F 76% 30.42 in - NW 1.2 mph - N/A   Clear
11:30 PM 44.6 °F 42.2 °F 41.0 °F 87% 30.39 in - WNW 4.6 mph - N/A   Clear